When you browse on this site, cookies collect data to enhance your experience and personalize the content and advertising you see.
Visit our Privacy Policy to learn more. By continuing to use the site, you agree to this use of cookies and data.
  • Em Portugal
  • Lista de países
  • Para 7 dias
  • Temperatura da água
  • Mapa do tempo
  • Widgets de tempo
  • user-avatar
    Iniciar Sessão

    Previsão horária em Pazardjico

    Hoje, 30 Março, Segunda-feira

    Tempo Temperatura Precipitação Vento Pressão Humidade
    00:00 +9°C° 0 mm 2 m/s 739 mmHg 72%
    01:00 +9°C° 0 mm 2 m/s 739 mmHg 72%
    02:00 +8°C° 0 mm 2 m/s 739 mmHg 72%
    03:00 +8°C° 0 mm 2 m/s 739 mmHg 73%
    04:00 +8°C° 0 mm 2 m/s 739 mmHg 73%
    05:00 +8°C° 0 mm 2 m/s 739 mmHg 73%
    06:00 +9°C° 0 mm 2 m/s 739 mmHg 70%
    07:00 +10°C° 0 mm 2 m/s 739 mmHg 68%
    08:00 +12°C° 0 mm 2 m/s 739 mmHg 65%
    09:00 +14°C° 0 mm 2 m/s 739 mmHg 58%
    10:00 +15°C° 0 mm 2 m/s 740 mmHg 52%
    11:00 +17°C° 0 mm 2 m/s 740 mmHg 45%
    12:00 +17°C° 0.1 mm 2 m/s 740 mmHg 44%
    13:00 +18°C° 0.1 mm 2 m/s 739 mmHg 42%
    14:00 +18°C° 0.1 mm 2 m/s 739 mmHg 40%
    15:00 +18°C° 0.1 mm 2 m/s 739 mmHg 42%
    16:00 +18°C° 0.1 mm 1 m/s 739 mmHg 45%
    17:00 +18°C° 0.1 mm 1 m/s 739 mmHg 47%
    18:00 +15°C° 0 mm 1 m/s 739 mmHg 55%
    19:00 +14°C° 0 mm 1 m/s 739 mmHg 63%
    20:00 +12°C° 0 mm 2 m/s 740 mmHg 71%
    21:00 +12°C° 0 mm 1 m/s 740 mmHg 72%
    22:00 +12°C° 0 mm 1 m/s 740 mmHg 74%
    23:00 +11°C° 0 mm 1 m/s 741 mmHg 75%

    Amanhã, 31 Março, Terça-feira

    Tempo Temperatura Precipitação Vento Pressão Humidade
    00:00 +11°C° 0 mm 1 m/s 741 mmHg 77%
    01:00 +10°C° 0 mm 1 m/s 741 mmHg 79%
    02:00 +10°C° 0 mm 1 m/s 741 mmHg 81%
    03:00 +9°C° 0 mm 2 m/s 741 mmHg 80%
    04:00 +9°C° 0 mm 2 m/s 741 mmHg 80%
    05:00 +8°C° 0 mm 2 m/s 741 mmHg 79%
    06:00 +8°C° 0 mm 2 m/s 741 mmHg 78%
    07:00 +8°C° 0 mm 2 m/s 741 mmHg 76%
    08:00 +8°C° 0 mm 2 m/s 742 mmHg 74%
    09:00 +9°C° 0 mm 2 m/s 742 mmHg 72%
    10:00 +10°C° 0 mm 2 m/s 742 mmHg 69%
    11:00 +12°C° 0 mm 2 m/s 742 mmHg 66%
    12:00 +10°C° 0 mm 2 m/s 742 mmHg 69%
    13:00 +10°C° 0 mm 2 m/s 742 mmHg 71%
    14:00 +10°C° 0 mm 2 m/s 742 mmHg 74%
    15:00 +10°C° 0.1 mm 2 m/s 742 mmHg 77%
    16:00 +9°C° 0.1 mm 2 m/s 742 mmHg 80%
    17:00 +9°C° 0.1 mm 2 m/s 742 mmHg 83%
    18:00 +8°C° 0.5 mm 2 m/s 742 mmHg 86%
    19:00 +8°C° 0.5 mm 2 m/s 742 mmHg 88%
    20:00 +7°C° 0.5 mm 2 m/s 742 mmHg 91%
    21:00 +7°C° 0.9 mm 2 m/s 743 mmHg 91%
    22:00 +6°C° 0.9 mm 2 m/s 743 mmHg 92%
    23:00 +6°C° 0.9 mm 2 m/s 743 mmHg 92%

    Depois de amanhã, 1 Abril, Quarta-feira

    Tempo Temperatura Precipitação Vento Pressão Humidade
    00:00 +5°C° 1.5 mm 2 m/s 743 mmHg 94%
    01:00 +4°C° 1.5 mm 2 m/s 743 mmHg 95%
    02:00 +4°C° 1.5 mm 2 m/s 743 mmHg 96%
    03:00 +4°C° 1.6 mm 2 m/s 743 mmHg 97%
    04:00 +4°C° 1.6 mm 1 m/s 743 mmHg 97%
    05:00 +4°C° 1.6 mm 1 m/s 743 mmHg 97%
    06:00 +3°C° 1 mm 2 m/s 743 mmHg 97%
    07:00 +3°C° 1 mm 2 m/s 743 mmHg 97%
    08:00 +2°C° 1 mm 3 m/s 743 mmHg 97%
    09:00 +3°C° 0.6 mm 4 m/s 743 mmHg 96%
    10:00 +3°C° 0.6 mm 4 m/s 743 mmHg 96%
    11:00 +3°C° 0.6 mm 4 m/s 743 mmHg 95%
    12:00 +3°C° 0.4 mm 4 m/s 743 mmHg 94%
    13:00 +3°C° 0.4 mm 4 m/s 743 mmHg 94%
    14:00 +3°C° 0.4 mm 4 m/s 743 mmHg 94%
    15:00 +3°C° 0.8 mm 3 m/s 743 mmHg 95%
    16:00 +2°C° 0.8 mm 3 m/s 742 mmHg 96%
    17:00 +2°C° 0.8 mm 3 m/s 742 mmHg 97%
    18:00 +2°C° 0.8 mm 3 m/s 742 mmHg 98%
    19:00 +2°C° 0.8 mm 3 m/s 742 mmHg 98%
    20:00 +2°C° 0.8 mm 3 m/s 743 mmHg 98%
    21:00 +3°C° 0.5 mm 2 m/s 743 mmHg 98%
    22:00 +3°C° 0.5 mm 2 m/s 743 mmHg 98%
    23:00 +4°C° 0.5 mm 1 m/s 743 mmHg 98%

    2 Abril, Quinta-feira

    Tempo Temperatura Precipitação Vento Pressão Humidade
    00:00 +4°C° 0.4 mm 1 m/s 743 mmHg 97%
    01:00 +3°C° 0.4 mm 1 m/s 742 mmHg 97%
    02:00 +2°C° 0.4 mm 2 m/s 742 mmHg 97%
    03:00 +2°C° 0.3 mm 2 m/s 742 mmHg 96%
    04:00 +2°C° 0.3 mm 2 m/s 743 mmHg 95%
    05:00 +2°C° 0.3 mm 2 m/s 743 mmHg 93%
    06:00 +2°C° 0.1 mm 2 m/s 743 mmHg 91%
    07:00 +2°C° 0.1 mm 2 m/s 743 mmHg 88%
    08:00 +2°C° 0.1 mm 2 m/s 744 mmHg 86%
    09:00 +3°C° 0 mm 2 m/s 744 mmHg 85%
    10:00 +6°C° 0 mm 1 m/s 744 mmHg 84%
    11:00 +7°C° 0 mm 1 m/s 744 mmHg 83%
    12:00 +7°C° 0 mm 1 m/s 743 mmHg 82%
    13:00 +8°C° 0 mm 1 m/s 743 mmHg 81%
    14:00 +9°C° 0 mm 1 m/s 743 mmHg 80%
    15:00 +9°C° 0 mm 1 m/s 743 mmHg 81%
    16:00 +9°C° 0 mm 1 m/s 742 mmHg 81%
    17:00 +9°C° 0 mm 1 m/s 742 mmHg 82%
    18:00 +8°C° 0 mm 1 m/s 742 mmHg 84%
    19:00 +7°C° 0 mm 1 m/s 742 mmHg 87%
    20:00 +6°C° 0 mm 1 m/s 742 mmHg 89%
    21:00 +5°C° 0 mm 1 m/s 743 mmHg 89%
    22:00 +5°C° 0 mm 1 m/s 743 mmHg 88%
    23:00 +5°C° 0 mm 1 m/s 743 mmHg 87%

    3 Abril, Sexta-feira

    Tempo Temperatura Precipitação Vento Pressão Humidade
    00:00 +4°C° 0 mm 1 m/s 743 mmHg 87%
    01:00 +4°C° 0 mm 1 m/s 743 mmHg 87%
    02:00 +4°C° 0 mm 1 m/s 743 mmHg 87%
    03:00 +4°C° 0 mm 1 m/s 743 mmHg 88%
    04:00 +4°C° 0 mm 1 m/s 743 mmHg 89%
    05:00 +3°C° 0 mm 0 m/s 742 mmHg 89%
    06:00 +4°C° 0 mm 0 m/s 743 mmHg 88%
    07:00 +5°C° 0 mm 0 m/s 743 mmHg 87%
    08:00 +6°C° 0 mm 0 m/s 743 mmHg 86%
    09:00 +7°C° 0 mm 0 m/s 743 mmHg 84%
    10:00 +9°C° 0 mm 1 m/s 742 mmHg 81%
    11:00 +11°C° 0 mm 1 m/s 742 mmHg 79%
    12:00 +11°C° 0 mm 1 m/s 742 mmHg 77%
    13:00 +12°C° 0 mm 1 m/s 742 mmHg 75%
    14:00 +13°C° 0 mm 1 m/s 742 mmHg 72%
    15:00 +13°C° 0 mm 1 m/s 742 mmHg 73%
    16:00 +13°C° 0 mm 1 m/s 741 mmHg 73%
    17:00 +13°C° 0 mm 1 m/s 741 mmHg 73%
    18:00 +11°C° 0 mm 1 m/s 741 mmHg 77%
    19:00 +10°C° 0 mm 1 m/s 742 mmHg 80%
    20:00 +8°C° 0 mm 1 m/s 742 mmHg 84%
    21:00 +8°C° 0 mm 1 m/s 743 mmHg 84%
    22:00 +8°C° 0 mm 1 m/s 743 mmHg 83%
    23:00 +6°C° 0 mm 2 m/s 744 mmHg 83%

    4 Abril, Sábado

    Tempo Temperatura Precipitação Vento Pressão Humidade
    00:00 +6°C° 0 mm 2 m/s 744 mmHg 83%
    01:00 +6°C° 0 mm 2 m/s 744 mmHg 82%
    02:00 +6°C° 0 mm 2 m/s 744 mmHg 82%
    03:00 +5°C° 0 mm 2 m/s 744 mmHg 82%
    04:00 +5°C° 0 mm 2 m/s 745 mmHg 82%
    05:00 +5°C° 0 mm 2 m/s 745 mmHg 81%
    06:00 +6°C° 0 mm 2 m/s 745 mmHg 79%
    07:00 +8°C° 0 mm 2 m/s 746 mmHg 77%
    08:00 +9°C° 0 mm 2 m/s 746 mmHg 75%
    09:00 +10°C° 0 mm 2 m/s 747 mmHg 69%
    10:00 +12°C° 0 mm 3 m/s 747 mmHg 64%
    11:00 +13°C° 0 mm 3 m/s 747 mmHg 59%
    12:00 +14°C° 0 mm 3 m/s 747 mmHg 59%
    13:00 +14°C° 0 mm 4 m/s 747 mmHg 59%
    14:00 +14°C° 0 mm 4 m/s 747 mmHg 59%
    15:00 +14°C° 0 mm 3 m/s 747 mmHg 60%
    16:00 +14°C° 0 mm 3 m/s 747 mmHg 61%
    17:00 +13°C° 0 mm 3 m/s 747 mmHg 63%
    18:00 +13°C° 0 mm 2 m/s 748 mmHg 68%
    19:00 +10°C° 0 mm 2 m/s 748 mmHg 73%
    20:00 +8°C° 0 mm 2 m/s 749 mmHg 77%
    21:00 +8°C° 0 mm 2 m/s 749 mmHg 78%
    22:00 +7°C° 0 mm 2 m/s 750 mmHg 78%
    23:00 +7°C° 0 mm 2 m/s 751 mmHg 78%
    Mostrar mais